Main page
Satellite images Climate Cyclones Lightning AirportsFAQ Languages Contact Newsletter About
Weather : Europe Africa North America South America Asia Australia-Oceania Others

chittagong-bd, Chittagong, Shah Amanat International Airport

latitude: , longitude: Bangladesh, elevation: 22-16N m


METAR: VGEG 270300Z 10005KT 5000 HZ FEW018 SCT120 29/12 Q1015 NOSIG